星链-5456 (STARLINK-5456 )

导读 | 豆包AI

STARLINK-5456是美国SpaceX公司星链(Starlink)项目的低轨通信卫星,于2023年2月17日发射升空,属于星链第二代星座的V1.5型号卫星,质量约295公斤,运行在550公里近地轨道。该卫星配备激光星间链路,可实现卫星间直接通信,降低对地面基站依赖,为全球提供高速宽带互联网服务,扩展了星链在高纬度、海洋等区域的覆盖能力,助力构建全球低延迟卫星通信网络,服役寿命约5-7年,退役后会再入大气层焚毁。

基本信息
目录编号:
55667
目录名称:
STARLINK-5456
国际标识:
2023-021AR
轨道中心:
EARTH
卫星名称:
星链-5456
卫星全名:
星链-5456 (STARLINK-5456 )
卫星状态:
在轨 (已飞行1168 天)
发射日期:
2023-02-17 UTC
国别 :
美国 (US)
星等 :
--
轨道信息
数据来源 国际轨道数据
星历时间: 2026-04-30T12:52:32+0800
10小时前
查看轨道信息
半长轴: 6950.135km
偏心率: 0.000239
轨道倾角: 70.002°
近地点辐角 270.386°
升交点赤经 34.460°
平近点角 89.702°
近地点: 570.336km
远地点: 573.66km
周期: 96.106分钟
每日圈数: 14.983488
详细信息
固有亮度:
5
最大亮度:
2.5
卫星平台:
Starlink v1.5
覆盖范围:
全球
运营商:
太空探索技术公司
运营商所在国:
美国
制造商(研发单位):
太空探索技术公司
制造商所在国:
美国
使用方式:
暂无
卫星简介
星链(Starlink)计划是由太空探索技术公司(SpaceX)提出的一个巨型低轨卫星互联网星座项目,计划在2019年至2024年间在太空搭建由约1.2万颗卫星组成的“星链”网络,其中1584颗将部署在地球上空550千米处的近地轨道,并从2020年开始工作。该卫星仍在工作。
2D轨道图
3D轨道图
轨道高度分析图
轨道倾角分析图
轨道综合分析图
查看轨道综合分析图